owner,sensor,date,latitude,longitude,air_temperature,qcFlag 
WAVCIS,ioos:station:WAVCIS:CSI09:1,2017-04-01T00:00:00Z,29.1015,-89.9782,24.4,11111222 
WAVCIS,ioos:station:WAVCIS:CSI09:1,2017-04-01T01:00:00Z,29.1015,-89.9782,22.74,11111222 
WAVCIS,ioos:station:WAVCIS:CSI09:1,2017-04-01T02:00:00Z,29.1015,-89.9782,19.99,11111222 
WAVCIS,ioos:station:WAVCIS:CSI09:1,2017-04-01T03:00:00Z,29.1015,-89.9782,19.74,11111222 
WAVCIS,ioos:station:WAVCIS:CSI09:1,2017-04-01T04:00:00Z,29.1015,-89.9782,19.61,11111222 
WAVCIS,ioos:station:WAVCIS:CSI09:1,2017-04-01T05:00:00Z,29.1015,-89.9782,19.24,11111222 
WAVCIS,ioos:station:WAVCIS:CSI09:1,2017-04-01T06:00:00Z,29.1015,-89.9782,19.2,11111222 
WAVCIS,ioos:station:WAVCIS:CSI09:1,2017-04-01T07:00:00Z,29.1015,-89.9782,19.25,11111222 
WAVCIS,ioos:station:WAVCIS:CSI09:1,2017-04-01T08:00:00Z,29.1015,-89.9782,19.3,11111222 
WAVCIS,ioos:station:WAVCIS:CSI09:1,2017-04-01T09:00:00Z,29.1015,-89.9782,19.27,11111222 
WAVCIS,ioos:station:WAVCIS:CSI09:1,2017-04-01T10:00:00Z,29.1015,-89.9782,18.82,11111222 
WAVCIS,ioos:station:WAVCIS:CSI09:1,2017-04-01T11:00:00Z,29.1015,-89.9782,18.81,11111222 
WAVCIS,ioos:station:WAVCIS:CSI09:1,2017-04-01T12:00:00Z,29.1015,-89.9782,18.78,11111222 
WAVCIS,ioos:station:WAVCIS:CSI09:1,2017-04-01T13:00:00Z,29.1015,-89.9782,18.89,11111222 
WAVCIS,ioos:station:WAVCIS:CSI09:1,2017-04-01T14:00:00Z,29.1015,-89.9782,18.42,11111222 
WAVCIS,ioos:station:WAVCIS:CSI09:1,2017-04-01T15:00:00Z,29.1015,-89.9782,18.23,11111222 
WAVCIS,ioos:station:WAVCIS:CSI09:1,2017-04-01T16:00:00Z,29.1015,-89.9782,18.52,11111222 
WAVCIS,ioos:station:WAVCIS:CSI09:1,2017-04-01T17:00:00Z,29.1015,-89.9782,18.71,11111222 
WAVCIS,ioos:station:WAVCIS:CSI09:1,2017-04-01T18:00:00Z,29.1015,-89.9782,18.97,11111222 
WAVCIS,ioos:station:WAVCIS:CSI09:1,2017-04-01T19:00:00Z,29.1015,-89.9782,19.24,11111222 
WAVCIS,ioos:station:WAVCIS:CSI09:1,2017-04-01T20:00:00Z,29.1015,-89.9782,19.22,11111222 
WAVCIS,ioos:station:WAVCIS:CSI09:1,2017-04-01T21:00:00Z,29.1015,-89.9782,19.54,11111222 
WAVCIS,ioos:station:WAVCIS:CSI09:1,2017-04-01T22:00:00Z,29.1015,-89.9782,19.58,11111222 
WAVCIS,ioos:station:WAVCIS:CSI09:1,2017-04-01T23:00:00Z,29.1015,-89.9782,19.6,11111222 
WAVCIS,ioos:station:WAVCIS:CSI09:1,2017-04-02T00:00:00Z,29.1015,-89.9782,19.09,11111222 
WAVCIS,ioos:station:WAVCIS:CSI09:1,2017-04-02T01:00:00Z,29.1015,-89.9782,18.6,11111222 
WAVCIS,ioos:station:WAVCIS:CSI09:1,2017-04-02T02:00:00Z,29.1015,-89.9782,18.05,11111222 
WAVCIS,ioos:station:WAVCIS:CSI09:1,2017-04-02T03:00:00Z,29.1015,-89.9782,17.34,11111222 
WAVCIS,ioos:station:WAVCIS:CSI09:1,2017-04-02T04:00:00Z,29.1015,-89.9782,15.4,11111222 
WAVCIS,ioos:station:WAVCIS:CSI09:1,2017-04-02T05:00:00Z,29.1015,-89.9782,12.16,11111222 
WAVCIS,ioos:station:WAVCIS:CSI09:1,2017-04-02T06:00:00Z,29.1015,-89.9782,9.67,11111222 
WAVCIS,ioos:station:WAVCIS:CSI09:1,2017-04-02T07:00:00Z,29.1015,-89.9782,5.908,11111222 
WAVCIS,ioos:station:WAVCIS:CSI09:1,2017-04-02T08:00:00Z,29.1015,-89.9782,2.701,11111222 
WAVCIS,ioos:station:WAVCIS:CSI09:1,2017-04-02T09:00:00Z,29.1015,-89.9782,1.109,11111222 
WAVCIS,ioos:station:WAVCIS:CSI09:1,2017-04-02T10:00:00Z,29.1015,-89.9782,-6.106,11133222 
WAVCIS,ioos:station:WAVCIS:CSI09:1,2017-04-02T11:00:00Z,29.1015,-89.9782,-0.065,11133222 
WAVCIS,ioos:station:WAVCIS:CSI09:1,2017-04-02T12:00:00Z,29.1015,-89.9782,3.251,11111222 
WAVCIS,ioos:station:WAVCIS:CSI09:1,2017-04-02T13:00:00Z,29.1015,-89.9782,2.197,11111222 
WAVCIS,ioos:station:WAVCIS:CSI09:1,2017-04-02T14:00:00Z,29.1015,-89.9782,-0.346,11133222 
WAVCIS,ioos:station:WAVCIS:CSI09:1,2017-04-02T15:00:00Z,29.1015,-89.9782,-4.073,11133222 
WAVCIS,ioos:station:WAVCIS:CSI09:1,2017-04-02T16:00:00Z,29.1015,-89.9782,-5.173,11133222 
WAVCIS,ioos:station:WAVCIS:CSI09:1,2017-04-02T17:00:00Z,29.1015,-89.9782,-5.65,11133222 
WAVCIS,ioos:station:WAVCIS:CSI09:1,2017-04-02T18:00:00Z,29.1015,-89.9782,-6.127,11133222 
WAVCIS,ioos:station:WAVCIS:CSI09:1,2017-04-02T19:00:00Z,29.1015,-89.9782,-6.698,11133222 
WAVCIS,ioos:station:WAVCIS:CSI09:1,2017-04-02T20:00:00Z,29.1015,-89.9782,-8.53,11133222 
WAVCIS,ioos:station:WAVCIS:CSI09:1,2017-04-02T21:00:00Z,29.1015,-89.9782,-9.07,11133222 
WAVCIS,ioos:station:WAVCIS:CSI09:1,2017-04-02T22:00:00Z,29.1015,-89.9782,-10.21,11144222 
WAVCIS,ioos:station:WAVCIS:CSI09:1,2017-04-02T23:00:00Z,29.1015,-89.9782,-10.73,11144222 
WAVCIS,ioos:station:WAVCIS:CSI09:1,2017-04-03T00:00:00Z,29.1015,-89.9782,-18.27,11144222 
WAVCIS,ioos:station:WAVCIS:CSI09:1,2017-04-03T01:00:00Z,29.1015,-89.9782,-14.96,11144222 
WAVCIS,ioos:station:WAVCIS:CSI09:1,2017-04-03T02:00:00Z,29.1015,-89.9782,-13.25,11144222 
WAVCIS,ioos:station:WAVCIS:CSI09:1,2017-04-03T03:00:00Z,29.1015,-89.9782,-10.61,11144222 
WAVCIS,ioos:station:WAVCIS:CSI09:1,2017-04-03T04:00:00Z,29.1015,-89.9782,-7.663,11133222 
WAVCIS,ioos:station:WAVCIS:CSI09:1,2017-04-03T05:00:00Z,29.1015,-89.9782,-3.658,11133222 
WAVCIS,ioos:station:WAVCIS:CSI09:1,2017-04-03T06:00:00Z,29.1015,-89.9782,-3.28,11133222 
WAVCIS,ioos:station:WAVCIS:CSI09:1,2017-04-03T07:00:00Z,29.1015,-89.9782,-1.898,11133222 
WAVCIS,ioos:station:WAVCIS:CSI09:1,2017-04-03T08:00:00Z,29.1015,-89.9782,-2.098,11133222 
WAVCIS,ioos:station:WAVCIS:CSI09:1,2017-04-03T09:00:00Z,29.1015,-89.9782,-3.463,11133222 
WAVCIS,ioos:station:WAVCIS:CSI09:1,2017-04-03T10:00:00Z,29.1015,-89.9782,-2.423,11133222 
WAVCIS,ioos:station:WAVCIS:CSI09:1,2017-04-03T11:00:00Z,29.1015,-89.9782,1.042,11111222 
WAVCIS,ioos:station:WAVCIS:CSI09:1,2017-04-03T12:00:00Z,29.1015,-89.9782,-9999.0,1111122 
WAVCIS,ioos:station:WAVCIS:CSI09:1,2017-04-03T13:00:00Z,29.1015,-89.9782,-9999.0,1111122 
WAVCIS,ioos:station:WAVCIS:CSI09:1,2017-04-03T14:00:00Z,29.1015,-89.9782,-9999.0,1111122 
WAVCIS,ioos:station:WAVCIS:CSI09:1,2017-04-03T15:00:00Z,29.1015,-89.9782,0.418,11111222 
WAVCIS,ioos:station:WAVCIS:CSI09:1,2017-04-03T16:00:00Z,29.1015,-89.9782,-2.437,11133222 
WAVCIS,ioos:station:WAVCIS:CSI09:1,2017-04-03T17:00:00Z,29.1015,-89.9782,-4.82,11133222 
WAVCIS,ioos:station:WAVCIS:CSI09:1,2017-04-03T18:00:00Z,29.1015,-89.9782,5.294,11111222 
WAVCIS,ioos:station:WAVCIS:CSI09:1,2017-04-03T19:00:00Z,29.1015,-89.9782,13.45,11111222 
WAVCIS,ioos:station:WAVCIS:CSI09:1,2017-04-03T20:00:00Z,29.1015,-89.9782,16.75,11111222 
WAVCIS,ioos:station:WAVCIS:CSI09:1,2017-04-03T21:00:00Z,29.1015,-89.9782,18.57,11111222 
WAVCIS,ioos:station:WAVCIS:CSI09:1,2017-04-03T22:00:00Z,29.1015,-89.9782,18.65,11111222 
WAVCIS,ioos:station:WAVCIS:CSI09:1,2017-04-03T23:00:00Z,29.1015,-89.9782,19.65,11111222 
WAVCIS,ioos:station:WAVCIS:CSI09:1,2017-04-04T00:00:00Z,29.1015,-89.9782,19.04,11111222 
WAVCIS,ioos:station:WAVCIS:CSI09:1,2017-04-04T01:00:00Z,29.1015,-89.9782,18.9,11111222 
WAVCIS,ioos:station:WAVCIS:CSI09:1,2017-04-04T02:00:00Z,29.1015,-89.9782,18.78,11111222 
WAVCIS,ioos:station:WAVCIS:CSI09:1,2017-04-04T03:00:00Z,29.1015,-89.9782,18.65,11111222 
WAVCIS,ioos:station:WAVCIS:CSI09:1,2017-04-04T04:00:00Z,29.1015,-89.9782,18.37,11111222 
WAVCIS,ioos:station:WAVCIS:CSI09:1,2017-04-04T05:00:00Z,29.1015,-89.9782,17.67,11111222 
WAVCIS,ioos:station:WAVCIS:CSI09:1,2017-04-04T06:00:00Z,29.1015,-89.9782,17.06,11111222 
WAVCIS,ioos:station:WAVCIS:CSI09:1,2017-04-04T07:00:00Z,29.1015,-89.9782,15.56,11111222 
WAVCIS,ioos:station:WAVCIS:CSI09:1,2017-04-04T08:00:00Z,29.1015,-89.9782,13.0,11111222 
WAVCIS,ioos:station:WAVCIS:CSI09:1,2017-04-04T09:00:00Z,29.1015,-89.9782,11.86,11111222 
WAVCIS,ioos:station:WAVCIS:CSI09:1,2017-04-04T10:00:00Z,29.1015,-89.9782,11.42,11111222 
WAVCIS,ioos:station:WAVCIS:CSI09:1,2017-04-04T11:00:00Z,29.1015,-89.9782,11.98,11111222 
WAVCIS,ioos:station:WAVCIS:CSI09:1,2017-04-04T12:00:00Z,29.1015,-89.9782,12.67,11111222 
WAVCIS,ioos:station:WAVCIS:CSI09:1,2017-04-04T13:00:00Z,29.1015,-89.9782,15.96,11111222 
WAVCIS,ioos:station:WAVCIS:CSI09:1,2017-04-04T14:00:00Z,29.1015,-89.9782,16.94,11111222 
WAVCIS,ioos:station:WAVCIS:CSI09:1,2017-04-04T15:00:00Z,29.1015,-89.9782,16.86,11111222 
WAVCIS,ioos:station:WAVCIS:CSI09:1,2017-04-04T16:00:00Z,29.1015,-89.9782,16.94,11111222 
WAVCIS,ioos:station:WAVCIS:CSI09:1,2017-04-04T17:00:00Z,29.1015,-89.9782,18.42,11111222 
WAVCIS,ioos:station:WAVCIS:CSI09:1,2017-04-04T18:00:00Z,29.1015,-89.9782,18.65,11111222 
WAVCIS,ioos:station:WAVCIS:CSI09:1,2017-04-04T19:00:00Z,29.1015,-89.9782,18.12,11111222 
WAVCIS,ioos:station:WAVCIS:CSI09:1,2017-04-04T20:00:00Z,29.1015,-89.9782,19.38,11111222 
WAVCIS,ioos:station:WAVCIS:CSI09:1,2017-04-04T21:00:00Z,29.1015,-89.9782,17.24,11111222 
WAVCIS,ioos:station:WAVCIS:CSI09:1,2017-04-04T22:00:00Z,29.1015,-89.9782,13.82,11111222 
WAVCIS,ioos:station:WAVCIS:CSI09:1,2017-04-04T23:00:00Z,29.1015,-89.9782,11.94,11111222 
WAVCIS,ioos:station:WAVCIS:CSI09:1,2017-04-05T00:00:00Z,29.1015,-89.9782,8.64,11111222 
WAVCIS,ioos:station:WAVCIS:CSI09:1,2017-04-05T01:00:00Z,29.1015,-89.9782,-0.541,11133222 
WAVCIS,ioos:station:WAVCIS:CSI09:1,2017-04-05T02:00:00Z,29.1015,-89.9782,-9999.0,1111122 
WAVCIS,ioos:station:WAVCIS:CSI09:1,2017-04-05T03:00:00Z,29.1015,-89.9782,-9999.0,1111122 
WAVCIS,ioos:station:WAVCIS:CSI09:1,2017-04-05T04:00:00Z,29.1015,-89.9782,-9999.0,1111122 
WAVCIS,ioos:station:WAVCIS:CSI09:1,2017-04-05T05:00:00Z,29.1015,-89.9782,-9999.0,1111122 
WAVCIS,ioos:station:WAVCIS:CSI09:1,2017-04-05T06:00:00Z,29.1015,-89.9782,-9999.0,1111122 
WAVCIS,ioos:station:WAVCIS:CSI09:1,2017-04-05T07:00:00Z,29.1015,-89.9782,-9999.0,1111122 
WAVCIS,ioos:station:WAVCIS:CSI09:1,2017-04-05T08:00:00Z,29.1015,-89.9782,-9999.0,1111122 
WAVCIS,ioos:station:WAVCIS:CSI09:1,2017-04-05T09:00:00Z,29.1015,-89.9782,-9999.0,1111122 
WAVCIS,ioos:station:WAVCIS:CSI09:1,2017-04-05T10:00:00Z,29.1015,-89.9782,-18.0,11144222 
WAVCIS,ioos:station:WAVCIS:CSI09:1,2017-04-05T11:00:00Z,29.1015,-89.9782,-4.544,11133222 
WAVCIS,ioos:station:WAVCIS:CSI09:1,2017-04-05T12:00:00Z,29.1015,-89.9782,-3.677,11133222 
WAVCIS,ioos:station:WAVCIS:CSI09:1,2017-04-05T13:00:00Z,29.1015,-89.9782,-11.53,11144222 
WAVCIS,ioos:station:WAVCIS:CSI09:1,2017-04-05T14:00:00Z,29.1015,-89.9782,-9999.0,1111122 
WAVCIS,ioos:station:WAVCIS:CSI09:1,2017-04-05T15:00:00Z,29.1015,-89.9782,-9999.0,1111122 
WAVCIS,ioos:station:WAVCIS:CSI09:1,2017-04-05T16:00:00Z,29.1015,-89.9782,-9999.0,1111122 
WAVCIS,ioos:station:WAVCIS:CSI09:1,2017-04-05T17:00:00Z,29.1015,-89.9782,-9999.0,1111122 
WAVCIS,ioos:station:WAVCIS:CSI09:1,2017-04-05T18:00:00Z,29.1015,-89.9782,-3.361,11133222 
WAVCIS,ioos:station:WAVCIS:CSI09:1,2017-04-05T19:00:00Z,29.1015,-89.9782,1.419,11111222 
WAVCIS,ioos:station:WAVCIS:CSI09:1,2017-04-05T20:00:00Z,29.1015,-89.9782,8.15,11111222 
WAVCIS,ioos:station:WAVCIS:CSI09:1,2017-04-05T21:00:00Z,29.1015,-89.9782,9.11,11111222 
WAVCIS,ioos:station:WAVCIS:CSI09:1,2017-04-05T22:00:00Z,29.1015,-89.9782,19.43,11111222 
WAVCIS,ioos:station:WAVCIS:CSI09:1,2017-04-05T23:00:00Z,29.1015,-89.9782,27.05,11111222 
WAVCIS,ioos:station:WAVCIS:CSI09:1,2017-04-06T00:00:00Z,29.1015,-89.9782,21.9,11111222 
WAVCIS,ioos:station:WAVCIS:CSI09:1,2017-04-06T01:00:00Z,29.1015,-89.9782,24.74,11111222 
WAVCIS,ioos:station:WAVCIS:CSI09:1,2017-04-06T02:00:00Z,29.1015,-89.9782,22.05,11111222 
WAVCIS,ioos:station:WAVCIS:CSI09:1,2017-04-06T03:00:00Z,29.1015,-89.9782,21.61,11111222 
WAVCIS,ioos:station:WAVCIS:CSI09:1,2017-04-06T04:00:00Z,29.1015,-89.9782,20.83,11111222 
WAVCIS,ioos:station:WAVCIS:CSI09:1,2017-04-06T05:00:00Z,29.1015,-89.9782,19.84,11111222 
WAVCIS,ioos:station:WAVCIS:CSI09:1,2017-04-06T06:00:00Z,29.1015,-89.9782,18.01,11111222 
WAVCIS,ioos:station:WAVCIS:CSI09:1,2017-04-06T07:00:00Z,29.1015,-89.9782,17.93,11111222 
WAVCIS,ioos:station:WAVCIS:CSI09:1,2017-04-06T08:00:00Z,29.1015,-89.9782,17.87,11111222 
WAVCIS,ioos:station:WAVCIS:CSI09:1,2017-04-06T09:00:00Z,29.1015,-89.9782,18.46,11111222 
WAVCIS,ioos:station:WAVCIS:CSI09:1,2017-04-06T10:00:00Z,29.1015,-89.9782,19.94,11111222 
WAVCIS,ioos:station:WAVCIS:CSI09:1,2017-04-06T11:00:00Z,29.1015,-89.9782,18.81,11111222 
WAVCIS,ioos:station:WAVCIS:CSI09:1,2017-04-06T12:00:00Z,29.1015,-89.9782,18.35,11111222 
WAVCIS,ioos:station:WAVCIS:CSI09:1,2017-04-06T13:00:00Z,29.1015,-89.9782,18.13,11111222 
WAVCIS,ioos:station:WAVCIS:CSI09:1,2017-04-06T14:00:00Z,29.1015,-89.9782,16.84,11111222 
WAVCIS,ioos:station:WAVCIS:CSI09:1,2017-04-06T15:00:00Z,29.1015,-89.9782,16.3,11111222 
WAVCIS,ioos:station:WAVCIS:CSI09:1,2017-04-06T16:00:00Z,29.1015,-89.9782,16.66,11111222 
WAVCIS,ioos:station:WAVCIS:CSI09:1,2017-04-06T17:00:00Z,29.1015,-89.9782,16.7,11111222 
WAVCIS,ioos:station:WAVCIS:CSI09:1,2017-04-06T18:00:00Z,29.1015,-89.9782,16.93,11111222 
WAVCIS,ioos:station:WAVCIS:CSI09:1,2017-04-06T19:00:00Z,29.1015,-89.9782,17.51,11111222 
WAVCIS,ioos:station:WAVCIS:CSI09:1,2017-04-06T20:00:00Z,29.1015,-89.9782,18.61,11111222 
WAVCIS,ioos:station:WAVCIS:CSI09:1,2017-04-06T21:00:00Z,29.1015,-89.9782,19.07,11111222 
WAVCIS,ioos:station:WAVCIS:CSI09:1,2017-04-06T22:00:00Z,29.1015,-89.9782,19.42,11111222 
WAVCIS,ioos:station:WAVCIS:CSI09:1,2017-04-06T23:00:00Z,29.1015,-89.9782,20.07,11111222 
WAVCIS,ioos:station:WAVCIS:CSI09:1,2017-04-07T00:00:00Z,29.1015,-89.9782,19.46,11111222 
WAVCIS,ioos:station:WAVCIS:CSI09:1,2017-04-07T01:00:00Z,29.1015,-89.9782,18.67,11111222 
WAVCIS,ioos:station:WAVCIS:CSI09:1,2017-04-07T02:00:00Z,29.1015,-89.9782,19.24,11111222 
WAVCIS,ioos:station:WAVCIS:CSI09:1,2017-04-07T03:00:00Z,29.1015,-89.9782,19.34,11111222 
WAVCIS,ioos:station:WAVCIS:CSI09:1,2017-04-07T04:00:00Z,29.1015,-89.9782,19.05,11111222 
WAVCIS,ioos:station:WAVCIS:CSI09:1,2017-04-07T05:00:00Z,29.1015,-89.9782,18.27,11111222 
WAVCIS,ioos:station:WAVCIS:CSI09:1,2017-04-07T06:00:00Z,29.1015,-89.9782,18.54,11111222 
WAVCIS,ioos:station:WAVCIS:CSI09:1,2017-04-07T07:00:00Z,29.1015,-89.9782,18.1,11111222 
WAVCIS,ioos:station:WAVCIS:CSI09:1,2017-04-07T08:00:00Z,29.1015,-89.9782,17.59,11111222 
WAVCIS,ioos:station:WAVCIS:CSI09:1,2017-04-07T09:00:00Z,29.1015,-89.9782,17.83,11111222 
WAVCIS,ioos:station:WAVCIS:CSI09:1,2017-04-07T10:00:00Z,29.1015,-89.9782,18.41,11111222 
WAVCIS,ioos:station:WAVCIS:CSI09:1,2017-04-07T11:00:00Z,29.1015,-89.9782,19.35,11111222 
WAVCIS,ioos:station:WAVCIS:CSI09:1,2017-04-07T12:00:00Z,29.1015,-89.9782,19.17,11111222 
WAVCIS,ioos:station:WAVCIS:CSI09:1,2017-04-07T13:00:00Z,29.1015,-89.9782,18.73,11111222 
WAVCIS,ioos:station:WAVCIS:CSI09:1,2017-04-07T14:00:00Z,29.1015,-89.9782,18.22,11111222 
WAVCIS,ioos:station:WAVCIS:CSI09:1,2017-04-07T15:00:00Z,29.1015,-89.9782,18.41,11111222 
WAVCIS,ioos:station:WAVCIS:CSI09:1,2017-04-07T16:00:00Z,29.1015,-89.9782,18.03,11111222 
WAVCIS,ioos:station:WAVCIS:CSI09:1,2017-04-07T17:00:00Z,29.1015,-89.9782,18.61,11111222 
WAVCIS,ioos:station:WAVCIS:CSI09:1,2017-04-07T18:00:00Z,29.1015,-89.9782,18.22,11111222 
WAVCIS,ioos:station:WAVCIS:CSI09:1,2017-04-07T19:00:00Z,29.1015,-89.9782,18.76,11111222 
WAVCIS,ioos:station:WAVCIS:CSI09:1,2017-04-07T20:00:00Z,29.1015,-89.9782,19.25,11111222 
WAVCIS,ioos:station:WAVCIS:CSI09:1,2017-04-07T21:00:00Z,29.1015,-89.9782,19.43,11111222 
WAVCIS,ioos:station:WAVCIS:CSI09:1,2017-04-07T22:00:00Z,29.1015,-89.9782,19.85,11111222 
WAVCIS,ioos:station:WAVCIS:CSI09:1,2017-04-07T23:00:00Z,29.1015,-89.9782,20.3,11111222 
WAVCIS,ioos:station:WAVCIS:CSI09:1,2017-04-08T00:00:00Z,29.1015,-89.9782,20.37,11111222 
WAVCIS,ioos:station:WAVCIS:CSI09:1,2017-04-08T01:00:00Z,29.1015,-89.9782,20.17,11111222 
WAVCIS,ioos:station:WAVCIS:CSI09:1,2017-04-08T02:00:00Z,29.1015,-89.9782,20.27,11111222 
WAVCIS,ioos:station:WAVCIS:CSI09:1,2017-04-08T03:00:00Z,29.1015,-89.9782,19.86,11111222 
WAVCIS,ioos:station:WAVCIS:CSI09:1,2017-04-08T04:00:00Z,29.1015,-89.9782,20.44,11111222 
WAVCIS,ioos:station:WAVCIS:CSI09:1,2017-04-08T05:00:00Z,29.1015,-89.9782,20.04,11111222 
WAVCIS,ioos:station:WAVCIS:CSI09:1,2017-04-08T06:00:00Z,29.1015,-89.9782,19.11,11111222 
WAVCIS,ioos:station:WAVCIS:CSI09:1,2017-04-08T07:00:00Z,29.1015,-89.9782,19.05,11111222 
WAVCIS,ioos:station:WAVCIS:CSI09:1,2017-04-08T08:00:00Z,29.1015,-89.9782,18.88,11111222 
WAVCIS,ioos:station:WAVCIS:CSI09:1,2017-04-08T09:00:00Z,29.1015,-89.9782,18.63,11111222 
WAVCIS,ioos:station:WAVCIS:CSI09:1,2017-04-08T10:00:00Z,29.1015,-89.9782,18.34,11111222 
WAVCIS,ioos:station:WAVCIS:CSI09:1,2017-04-08T11:00:00Z,29.1015,-89.9782,18.35,11111222 
WAVCIS,ioos:station:WAVCIS:CSI09:1,2017-04-08T12:00:00Z,29.1015,-89.9782,18.03,11111222 
WAVCIS,ioos:station:WAVCIS:CSI09:1,2017-04-08T13:00:00Z,29.1015,-89.9782,19.08,11111222 
WAVCIS,ioos:station:WAVCIS:CSI09:1,2017-04-08T14:00:00Z,29.1015,-89.9782,20.39,11111222 
WAVCIS,ioos:station:WAVCIS:CSI09:1,2017-04-08T15:00:00Z,29.1015,-89.9782,18.85,11111222 
WAVCIS,ioos:station:WAVCIS:CSI09:1,2017-04-08T16:00:00Z,29.1015,-89.9782,18.52,11111222 
WAVCIS,ioos:station:WAVCIS:CSI09:1,2017-04-08T17:00:00Z,29.1015,-89.9782,18.6,11111222 
WAVCIS,ioos:station:WAVCIS:CSI09:1,2017-04-08T18:00:00Z,29.1015,-89.9782,18.92,11111222 
WAVCIS,ioos:station:WAVCIS:CSI09:1,2017-04-08T19:00:00Z,29.1015,-89.9782,19.08,11111222 
WAVCIS,ioos:station:WAVCIS:CSI09:1,2017-04-08T20:00:00Z,29.1015,-89.9782,19.28,11111222 
WAVCIS,ioos:station:WAVCIS:CSI09:1,2017-04-08T21:00:00Z,29.1015,-89.9782,19.68,11111222 
WAVCIS,ioos:station:WAVCIS:CSI09:1,2017-04-08T22:00:00Z,29.1015,-89.9782,19.65,11111222 
WAVCIS,ioos:station:WAVCIS:CSI09:1,2017-04-08T23:00:00Z,29.1015,-89.9782,19.53,11111222 
WAVCIS,ioos:station:WAVCIS:CSI09:1,2017-04-09T00:00:00Z,29.1015,-89.9782,19.4,11111222 
WAVCIS,ioos:station:WAVCIS:CSI09:1,2017-04-09T01:00:00Z,29.1015,-89.9782,19.11,11111222 
WAVCIS,ioos:station:WAVCIS:CSI09:1,2017-04-09T02:00:00Z,29.1015,-89.9782,19.37,11111222 
WAVCIS,ioos:station:WAVCIS:CSI09:1,2017-04-09T03:00:00Z,29.1015,-89.9782,19.86,11111222 
WAVCIS,ioos:station:WAVCIS:CSI09:1,2017-04-09T04:00:00Z,29.1015,-89.9782,19.7,11111222 
WAVCIS,ioos:station:WAVCIS:CSI09:1,2017-04-09T05:00:00Z,29.1015,-89.9782,19.77,11111222 
WAVCIS,ioos:station:WAVCIS:CSI09:1,2017-04-09T06:00:00Z,29.1015,-89.9782,18.99,11111222 
WAVCIS,ioos:station:WAVCIS:CSI09:1,2017-04-09T07:00:00Z,29.1015,-89.9782,19.01,11111222 
WAVCIS,ioos:station:WAVCIS:CSI09:1,2017-04-09T08:00:00Z,29.1015,-89.9782,18.46,11111222 
WAVCIS,ioos:station:WAVCIS:CSI09:1,2017-04-09T09:00:00Z,29.1015,-89.9782,19.53,11111222 
WAVCIS,ioos:station:WAVCIS:CSI09:1,2017-04-09T10:00:00Z,29.1015,-89.9782,20.49,11111222 
WAVCIS,ioos:station:WAVCIS:CSI09:1,2017-04-09T11:00:00Z,29.1015,-89.9782,19.52,11111222 
WAVCIS,ioos:station:WAVCIS:CSI09:1,2017-04-09T12:00:00Z,29.1015,-89.9782,20.34,11111222 
WAVCIS,ioos:station:WAVCIS:CSI09:1,2017-04-09T13:00:00Z,29.1015,-89.9782,21.47,11111222 
WAVCIS,ioos:station:WAVCIS:CSI09:1,2017-04-09T14:00:00Z,29.1015,-89.9782,21.0,11111222 
WAVCIS,ioos:station:WAVCIS:CSI09:1,2017-04-09T15:00:00Z,29.1015,-89.9782,19.48,11111222 
WAVCIS,ioos:station:WAVCIS:CSI09:1,2017-04-09T16:00:00Z,29.1015,-89.9782,19.93,11111222 
WAVCIS,ioos:station:WAVCIS:CSI09:1,2017-04-09T17:00:00Z,29.1015,-89.9782,19.97,11111222 
WAVCIS,ioos:station:WAVCIS:CSI09:1,2017-04-09T18:00:00Z,29.1015,-89.9782,19.49,11111222 
WAVCIS,ioos:station:WAVCIS:CSI09:1,2017-04-09T19:00:00Z,29.1015,-89.9782,19.71,11111222 
WAVCIS,ioos:station:WAVCIS:CSI09:1,2017-04-09T20:00:00Z,29.1015,-89.9782,19.27,11111222 
WAVCIS,ioos:station:WAVCIS:CSI09:1,2017-04-09T21:00:00Z,29.1015,-89.9782,19.4,11111222 
WAVCIS,ioos:station:WAVCIS:CSI09:1,2017-04-09T22:00:00Z,29.1015,-89.9782,19.51,11111222 
WAVCIS,ioos:station:WAVCIS:CSI09:1,2017-04-09T23:00:00Z,29.1015,-89.9782,19.52,11111222 
WAVCIS,ioos:station:WAVCIS:CSI09:1,2017-04-10T00:00:00Z,29.1015,-89.9782,19.24,11111222 
WAVCIS,ioos:station:WAVCIS:CSI09:1,2017-04-10T01:00:00Z,29.1015,-89.9782,18.91,11111222 
WAVCIS,ioos:station:WAVCIS:CSI09:1,2017-04-10T02:00:00Z,29.1015,-89.9782,18.76,11111222 
WAVCIS,ioos:station:WAVCIS:CSI09:1,2017-04-10T03:00:00Z,29.1015,-89.9782,18.81,11111222 
WAVCIS,ioos:station:WAVCIS:CSI09:1,2017-04-10T04:00:00Z,29.1015,-89.9782,18.83,11111222 
WAVCIS,ioos:station:WAVCIS:CSI09:1,2017-04-10T05:00:00Z,29.1015,-89.9782,18.79,11111222 
WAVCIS,ioos:station:WAVCIS:CSI09:1,2017-04-10T06:00:00Z,29.1015,-89.9782,18.8,11111222 
WAVCIS,ioos:station:WAVCIS:CSI09:1,2017-04-10T07:00:00Z,29.1015,-89.9782,18.78,11111222 
WAVCIS,ioos:station:WAVCIS:CSI09:1,2017-04-10T08:00:00Z,29.1015,-89.9782,18.93,11111222 
WAVCIS,ioos:station:WAVCIS:CSI09:1,2017-04-10T09:00:00Z,29.1015,-89.9782,19.04,11111222 
WAVCIS,ioos:station:WAVCIS:CSI09:1,2017-04-10T10:00:00Z,29.1015,-89.9782,19.13,11111222 
WAVCIS,ioos:station:WAVCIS:CSI09:1,2017-04-10T11:00:00Z,29.1015,-89.9782,19.4,11111222 
WAVCIS,ioos:station:WAVCIS:CSI09:1,2017-04-10T12:00:00Z,29.1015,-89.9782,19.63,11111222 
WAVCIS,ioos:station:WAVCIS:CSI09:1,2017-04-10T13:00:00Z,29.1015,-89.9782,19.95,11111222 
WAVCIS,ioos:station:WAVCIS:CSI09:1,2017-04-10T14:00:00Z,29.1015,-89.9782,20.38,11111222 
WAVCIS,ioos:station:WAVCIS:CSI09:1,2017-04-10T15:00:00Z,29.1015,-89.9782,20.62,11111222 
WAVCIS,ioos:station:WAVCIS:CSI09:1,2017-04-10T16:00:00Z,29.1015,-89.9782,20.79,11111222 
WAVCIS,ioos:station:WAVCIS:CSI09:1,2017-04-10T17:00:00Z,29.1015,-89.9782,20.26,11111222 
WAVCIS,ioos:station:WAVCIS:CSI09:1,2017-04-10T18:00:00Z,29.1015,-89.9782,19.92,11111222 
WAVCIS,ioos:station:WAVCIS:CSI09:1,2017-04-10T19:00:00Z,29.1015,-89.9782,19.71,11111222 
WAVCIS,ioos:station:WAVCIS:CSI09:1,2017-04-10T20:00:00Z,29.1015,-89.9782,19.73,11111222 
WAVCIS,ioos:station:WAVCIS:CSI09:1,2017-04-10T21:00:00Z,29.1015,-89.9782,19.98,11111222 
WAVCIS,ioos:station:WAVCIS:CSI09:1,2017-04-10T22:00:00Z,29.1015,-89.9782,19.99,11111222 
WAVCIS,ioos:station:WAVCIS:CSI09:1,2017-04-10T23:00:00Z,29.1015,-89.9782,19.94,11111222 
WAVCIS,ioos:station:WAVCIS:CSI09:1,2017-04-11T00:00:00Z,29.1015,-89.9782,19.66,11111222 
WAVCIS,ioos:station:WAVCIS:CSI09:1,2017-04-11T01:00:00Z,29.1015,-89.9782,19.34,11111222 
WAVCIS,ioos:station:WAVCIS:CSI09:1,2017-04-11T02:00:00Z,29.1015,-89.9782,18.97,11111222 
WAVCIS,ioos:station:WAVCIS:CSI09:1,2017-04-11T03:00:00Z,29.1015,-89.9782,17.72,11111222 
WAVCIS,ioos:station:WAVCIS:CSI09:1,2017-04-11T04:00:00Z,29.1015,-89.9782,16.2,11111222 
WAVCIS,ioos:station:WAVCIS:CSI09:1,2017-04-11T05:00:00Z,29.1015,-89.9782,15.77,11111222 
WAVCIS,ioos:station:WAVCIS:CSI09:1,2017-04-11T06:00:00Z,29.1015,-89.9782,16.12,11111222 
WAVCIS,ioos:station:WAVCIS:CSI09:1,2017-04-11T07:00:00Z,29.1015,-89.9782,17.05,11111222 
WAVCIS,ioos:station:WAVCIS:CSI09:1,2017-04-11T08:00:00Z,29.1015,-89.9782,17.76,11111222 
WAVCIS,ioos:station:WAVCIS:CSI09:1,2017-04-11T09:00:00Z,29.1015,-89.9782,17.88,11111222 
WAVCIS,ioos:station:WAVCIS:CSI09:1,2017-04-11T10:00:00Z,29.1015,-89.9782,18.0,11111222 
WAVCIS,ioos:station:WAVCIS:CSI09:1,2017-04-11T11:00:00Z,29.1015,-89.9782,17.87,11111222 
WAVCIS,ioos:station:WAVCIS:CSI09:1,2017-04-11T12:00:00Z,29.1015,-89.9782,18.03,11111222 
WAVCIS,ioos:station:WAVCIS:CSI09:1,2017-04-11T13:00:00Z,29.1015,-89.9782,18.59,11111222 
WAVCIS,ioos:station:WAVCIS:CSI09:1,2017-04-11T14:00:00Z,29.1015,-89.9782,18.81,11111222 
WAVCIS,ioos:station:WAVCIS:CSI09:1,2017-04-11T15:00:00Z,29.1015,-89.9782,19.18,11111222 
WAVCIS,ioos:station:WAVCIS:CSI09:1,2017-04-11T16:00:00Z,29.1015,-89.9782,19.17,11111222 
WAVCIS,ioos:station:WAVCIS:CSI09:1,2017-04-11T17:00:00Z,29.1015,-89.9782,19.15,11111222 
WAVCIS,ioos:station:WAVCIS:CSI09:1,2017-04-11T18:00:00Z,29.1015,-89.9782,19.02,11111222 
WAVCIS,ioos:station:WAVCIS:CSI09:1,2017-04-11T19:00:00Z,29.1015,-89.9782,18.83,11111222 
WAVCIS,ioos:station:WAVCIS:CSI09:1,2017-04-11T20:00:00Z,29.1015,-89.9782,18.86,11111222 
WAVCIS,ioos:station:WAVCIS:CSI09:1,2017-04-11T21:00:00Z,29.1015,-89.9782,18.41,11111222 
WAVCIS,ioos:station:WAVCIS:CSI09:1,2017-04-11T22:00:00Z,29.1015,-89.9782,18.3,11111222 
WAVCIS,ioos:station:WAVCIS:CSI09:1,2017-04-11T23:00:00Z,29.1015,-89.9782,18.27,11111222 
WAVCIS,ioos:station:WAVCIS:CSI09:1,2017-04-12T00:00:00Z,29.1015,-89.9782,17.8,11111222 
WAVCIS,ioos:station:WAVCIS:CSI09:1,2017-04-12T01:00:00Z,29.1015,-89.9782,17.37,11111222 
WAVCIS,ioos:station:WAVCIS:CSI09:1,2017-04-12T02:00:00Z,29.1015,-89.9782,17.04,11111222 
WAVCIS,ioos:station:WAVCIS:CSI09:1,2017-04-12T03:00:00Z,29.1015,-89.9782,16.67,11111222 